Location: Bonneuil
(46.1010°N, 2.9693°E)
Time: 19:15:46
(UTC+00:00)

Cosmos 192 - Pass Details

Date: 09 April 2020
Orbit: 700 x 714 km, 74.0° (Epoch: 25 May)

Event Time Altitude Azimuth Distance (km) Brightness Sun altitude
Rises 20:34:35 0° 337° (NNW) 3,119 8.7 -20.7°
Reaches altitude 10° 20:36:55 10° 336° (NNW) 2,197 7.7 -21.0°
Maximum altitude 20:41:53 79° 251° (WSW) 730 4.3 -21.6°
Enters shadow 20:43:22 46° 172° (S) 958 4.6 -21.8°
